TimeEDT,TemperatureF,Dew PointF,Humidity,Sea Level PressureIn,VisibilityMPH,Wind Direction,Wind SpeedMPH,Gust SpeedMPH,PrecipitationIn,Events,Conditions,WindDirDegrees,DateUTC
12:53 AM,82.9,73.9,74,30.01,10.0,East,8.1,-,N/A,,Partly Cloudy,80,2013-10-04 04:53:00
1:53 AM,82.9,75.0,77,30.00,10.0,East,8.1,-,N/A,,Mostly Cloudy,90,2013-10-04 05:53:00
2:53 AM,82.0,75.0,79,29.99,10.0,East,5.8,-,0.01,,Partly Cloudy,100,2013-10-04 06:53:00
3:53 AM,82.0,73.9,76,29.99,10.0,East,6.9,-,N/A,,Clear,90,2013-10-04 07:53:00
4:53 AM,82.0,73.9,76,29.97,10.0,Variable,5.8,-,N/A,,Scattered Clouds,0,2013-10-04 08:53:00
5:53 AM,82.0,73.9,76,29.98,10.0,East,6.9,-,N/A,,Partly Cloudy,90,2013-10-04 09:53:00
6:53 AM,82.0,73.9,76,30.00,10.0,East,6.9,-,N/A,,Clear,80,2013-10-04 10:53:00
7:45 AM,66.2,66.2,100,30.09,0.1,Calm,Calm,-,N/A,Fog,Fog,0,2013-10-04 11:45:00
7:53 AM,82.0,73.9,76,30.01,10.0,East,6.9,-,N/A,,Clear,80,2013-10-04 11:53:00
8:53 AM,84.0,73.9,72,30.02,10.0,East,6.9,-,N/A,,Clear,90,2013-10-04 12:53:00
9:53 AM,84.9,73.9,69,30.03,10.0,East,8.1,-,N/A,,Partly Cloudy,90,2013-10-04 13:53:00
10:53 AM,86.0,73.9,67,30.04,10.0,East,9.2,-,N/A,,Clear,80,2013-10-04 14:53:00
11:53 AM,88.0,73.9,63,30.04,10.0,East,10.4,-,N/A,,Partly Cloudy,80,2013-10-04 15:53:00
12:53 PM,89.1,73.9,61,30.03,10.0,ENE,11.5,16.1,N/A,,Partly Cloudy,70,2013-10-04 16:53:00
1:53 PM,88.0,73.9,63,30.01,10.0,East,10.4,16.1,N/A,,Partly Cloudy,80,2013-10-04 17:53:00
2:26 PM,87.8,73.4,62,29.99,10.0,East,11.5,-,N/A,,Mostly Cloudy,100,2013-10-04 18:26:00
2:43 PM,87.8,73.4,62,29.99,10.0,East,11.5,-,N/A,,Scattered Clouds,80,2013-10-04 18:43:00
2:53 PM,88.0,73.0,61,29.99,10.0,East,8.1,-,N/A,,Partly Cloudy,90,2013-10-04 18:53:00
3:53 PM,87.1,72.0,61,29.98,10.0,ENE,9.2,-,N/A,,Mostly Cloudy,70,2013-10-04 19:53:00
4:29 PM,86.0,73.4,66,29.98,10.0,East,9.2,-,N/A,,Scattered Clouds,80,2013-10-04 20:29:00
4:53 PM,86.0,73.0,65,29.97,10.0,East,9.2,-,N/A,,Partly Cloudy,80,2013-10-04 20:53:00
5:29 PM,86.0,71.6,62,29.97,10.0,East,8.1,-,N/A,,Mostly Cloudy,80,2013-10-04 21:29:00
5:40 PM,86.0,71.6,62,29.97,10.0,East,10.4,-,N/A,,Scattered Clouds,90,2013-10-04 21:40:00
5:53 PM,86.0,72.0,63,29.97,10.0,East,10.4,-,N/A,,Partly Cloudy,80,2013-10-04 21:53:00
6:53 PM,84.0,72.0,67,29.98,10.0,East,5.8,-,N/A,,Clear,80,2013-10-04 22:53:00
7:53 PM,84.0,72.0,67,30.00,10.0,ENE,8.1,-,N/A,,Clear,70,2013-10-04 23:53:00
8:53 PM,82.9,72.0,69,30.01,10.0,East,3.5,-,N/A,,Clear,80,2013-10-05 00:53:00
9:53 PM,82.9,72.0,69,30.03,10.0,East,4.6,-,N/A,,Clear,80,2013-10-05 01:53:00
10:53 PM,82.9,72.0,69,30.03,10.0,ENE,4.6,-,N/A,,Clear,70,2013-10-05 02:53:00
11:53 PM,82.0,72.0,71,30.02,10.0,East,5.8,-,N/A,,Clear,80,2013-10-05 03:53:00